Back to catalog

BREEZE-M DEB

AliveHEO
NORAD 41317·DEBRIS·🇷🇺 Russia

Launched May 17, 2012 from Baikonur Cosmodrome

Loading…

Next Passes (next 24 hours)

TLE

FreshSource: Space-Track

Epoch: Sep 14, 2026, 07:31 UTC

1 41317U 12026D   26257.31326785 -.00000115  00000-0  00000-0 0  9992
2 41317  10.3207 120.8296 4124950  77.1373 324.9155  1.79270243 70182

Track BREEZE-M DEB in real time with AllMySat

Download on the App Store